OCO133S EBOS-EBAW

Flight info

Callsign OCO133S
Flight time N/A
Altitude 1000
Route EBOS EBAW
Aircraft DA40/L-SBDGRY/S

Departure

Time 2026-04-20 20:06
Airport Ostend-Bruges International Airport (EBOS)

Arrival

Time N/A
Airport Antwerp International Airport (Deurne) (EBAW)
Time Latitude Longitude Altitude Speed Heading
2026-04-20 19:53 51.19933 2.85532 11 ft 0 kts 232°
2026-04-20 20:03 51.19931 2.85530 11 ft 1 kts 210°
2026-04-20 20:03 51.19918 2.85538 11 ft 6 kts 136°
2026-04-20 20:04 51.19882 2.85584 11 ft 3 kts 171°
2026-04-20 20:04 51.19867 2.85578 11 ft 2 kts 238°
2026-04-20 20:04 51.19856 2.85484 11 ft 18 kts 259°
2026-04-20 20:04 51.19817 2.85319 11 ft 12 kts 219°
2026-04-20 20:05 51.19740 2.85252 11 ft 11 kts 173°
2026-04-20 20:05 51.19664 2.85300 11 ft 10 kts 117°
2026-04-20 20:05 51.19690 2.85502 11 ft 42 kts 76°
2026-04-20 20:05 51.19790 2.86208 60 ft 81 kts 72°
2026-04-20 20:06 51.19933 2.87137 258 ft 87 kts 69°
2026-04-20 20:06 51.20093 2.88120 431 ft 96 kts 81°
2026-04-20 20:06 51.19811 2.89087 705 ft 107 kts 133°
2026-04-20 20:06 51.19123 2.89618 983 ft 114 kts 149°
2026-04-20 20:07 51.18373 2.90183 1121 ft 126 kts 147°
2026-04-20 20:07 51.17576 2.90895 1061 ft 136 kts 136°
2026-04-20 20:07 51.16895 2.91939 1064 ft 136 kts 128°
2026-04-20 20:07 51.16233 2.93029 1081 ft 137 kts 127°
2026-04-20 20:08 51.15570 2.94127 1087 ft 138 kts 128°
2026-04-20 20:08 51.14899 2.95231 1062 ft 139 kts 127°
2026-04-20 20:08 51.14227 2.96363 1012 ft 141 kts 127°
2026-04-20 20:08 51.13843 2.97704 945 ft 131 kts 88°
2026-04-20 20:09 51.13899 2.99107 951 ft 126 kts 81°
2026-04-20 20:09 51.13948 3.00501 939 ft 124 kts 82°
2026-04-20 20:09 51.13989 3.01868 941 ft 121 kts 77°
2026-04-20 20:09 51.14240 3.03120 933 ft 120 kts 65°
2026-04-20 20:10 51.14540 3.04382 918 ft 121 kts 65°
2026-04-20 20:10 51.14884 3.05586 951 ft 117 kts 56°
2026-04-20 20:10 51.15308 3.06691 968 ft 118 kts 55°
2026-04-20 20:10 51.15747 3.07807 960 ft 119 kts 55°
2026-04-20 20:11 51.16173 3.08904 1026 ft 116 kts 56°
2026-04-20 20:11 51.16550 3.10044 1043 ft 117 kts 60°
2026-04-20 20:11 51.16901 3.11238 1026 ft 120 kts 62°
2026-04-20 20:11 51.17222 3.12455 1049 ft 118 kts 64°
2026-04-20 20:12 51.17585 3.13593 358 ft 148 kts 37°
2026-04-20 20:12 51.18095 3.14605 879 ft 111 kts 65°
2026-04-20 20:12 51.18269 3.15860 917 ft 120 kts 77°
2026-04-20 20:13 51.18329 3.18497 991 ft 120 kts 83°
2026-04-20 20:13 51.18332 3.19832 997 ft 120 kts 84°
2026-04-20 20:13 51.18326 3.21208 928 ft 127 kts 86°
2026-04-20 20:13 51.18289 3.22536 1098 ft 117 kts 86°
2026-04-20 20:14 51.18250 3.23829 1171 ft 117 kts 88°
2026-04-20 20:14 51.18162 3.25139 1193 ft 122 kts 94°
2026-04-20 20:14 51.17967 3.26455 1233 ft 121 kts 97°
2026-04-20 20:14 51.17684 3.27678 1437 ft 115 kts 107°
2026-04-20 20:15 51.17353 3.28820 1650 ft 113 kts 107°
2026-04-20 20:15 51.16993 3.29962 1781 ft 116 kts 110°
2026-04-20 20:15 51.16584 3.31092 1979 ft 114 kts 114°
2026-04-20 20:15 51.16133 3.32111 2212 ft 115 kts 117°
2026-04-20 20:16 51.15680 3.33195 2347 ft 116 kts 112°
2026-04-20 20:16 51.15283 3.34329 2447 ft 116 kts 113°
2026-04-20 20:16 51.14888 3.35433 2542 ft 118 kts 112°
2026-04-20 20:16 51.14448 3.36704 2246 ft 139 kts 110°
2026-04-20 20:17 51.14044 3.38125 2185 ft 139 kts 108°
2026-04-20 20:17 51.13660 3.39543 2182 ft 135 kts 107°
2026-04-20 20:17 51.13302 3.40929 2151 ft 135 kts 103°
2026-04-20 20:17 51.13191 3.42445 1976 ft 135 kts 83°
2026-04-20 20:18 51.13462 3.43857 1851 ft 131 kts 69°
2026-04-20 20:18 51.13855 3.45374 270 ft 173 kts 63°
2026-04-20 20:18 51.14315 3.47073 101 ft 155 kts 64°
2026-04-20 20:18 51.14582 3.48066 1131 ft 37 kts 253°
2026-04-20 20:19 51.14037 3.47451 560 ft 136 kts 215°
2026-04-20 20:19 51.13762 3.46894 985 ft 46 kts 56°
2026-04-20 20:19 51.14168 3.47859 494 ft 127 kts 60°
2026-04-20 20:19 51.14643 3.49100 444 ft 131 kts 54°
2026-04-20 20:20 51.15086 3.50311 523 ft 127 kts 49°
2026-04-20 20:20 51.15665 3.51482 291 ft 141 kts 49°
2026-04-20 20:20 51.16357 3.52676 84 ft 143 kts 39°
2026-04-20 20:20 51.17045 3.53720 74 ft 134 kts 44°
2026-04-20 20:21 51.17521 3.54964 57 ft 132 kts 48°
2026-04-20 20:21 51.18199 3.55806 188 ft 123 kts 44°
2026-04-20 20:21 51.18793 3.56856 137 ft 134 kts 47°
2026-04-20 20:21 51.19306 3.58120 101 ft 137 kts 57°
2026-04-20 20:22 51.19719 3.59478 104 ft 135 kts 64°
2026-04-20 20:22 51.20092 3.60828 66 ft 136 kts 59°
2026-04-20 20:22 51.20429 3.62088 551 ft 100 kts 69°
2026-04-20 20:22 51.20643 3.63127 860 ft 96 kts 69°
2026-04-20 20:23 51.20841 3.64243 765 ft 126 kts 70°
2026-04-20 20:23 51.21104 3.65490 1139 ft 104 kts 70°
2026-04-20 20:23 51.21045 3.66844 347 ft 142 kts 101°
2026-04-20 20:23 51.20810 3.68374 71 ft 137 kts 103°
2026-04-20 20:24 51.20539 3.69775 34 ft 129 kts 104°
2026-04-20 20:24 51.20495 3.70015 27 ft 0 kts 104°